This is the latest recevied weather packets stored in our database for station/object W4UWO. If no packets are shown the sender has not sent any weather packets the latest 10 day(s).
| Time | Temp. | Humidity | Pressure | Rain* | Wind** | Luminosity | Snow |
|---|---|---|---|---|---|---|---|
| 1788611313 | 25° C | 88% | 1016.6 hPa | 0 mm | - | 71 W/m² | - |
| 1788611012 | 25° C | 89% | 1016.5 hPa | 0 mm | - | 67 W/m² | - |
| 1788610707 | 24.44° C | 89% | 1016.5 hPa | 0 mm | - | 58 W/m² | - |
| 1788610404 | 24.44° C | 89% | 1016.6 hPa | 0 mm | - | 49 W/m² | - |
| 1788610102 | 24.44° C | 90% | 1016.5 hPa | 0 mm | - | 46 W/m² | - |
| 1788609797 | 24.44° C | 90% | 1016.2 hPa | 0 mm | - | 41 W/m² | - |
| 1788609492 | 24.44° C | 90% | 1016 hPa | 0 mm | - | 31 W/m² | - |
| 1788609192 | 24.44° C | 90% | 1016.1 hPa | 0 mm | - | 24 W/m² | - |
| 1788608892 | 23.89° C | 90% | 1016 hPa | 0 mm | - | 17 W/m² | - |
| 1788608591 | 23.89° C | 92% | 1015.8 hPa | 0 mm | - | 14 W/m² | - |
| 1788608290 | 23.89° C | 92% | 1015.8 hPa | 0 mm | - | 11 W/m² | - |
| 1788607986 | 23.89° C | 91% | 1015.7 hPa | 0 mm | - | 6 W/m² | - |
| 1788607681 | 23.89° C | 91% | 1015.7 hPa | 0 mm | - | 4 W/m² | - |
| 1788607376 | 23.33° C | 93% | 1015.7 hPa | 0 mm | - | 3 W/m² | - |
| 1788607071 | 23.33° C | 92% | 1015.5 hPa | 0 mm | - | 1 W/m² | - |
| 1788606771 | 23.89° C | 92% | 1015.4 hPa | 0 mm | - | 0 W/m² | - |
| 1788606471 | 23.89° C | 92% | 1015 hPa | 0 mm | - | 0 W/m² | - |
| 1788606170 | 23.89° C | 92% | 1015.3 hPa | 0 mm | - | 0 W/m² | - |
| 1788605866 | 23.89° C | 91% | 1015.4 hPa | 0 mm | - | 0 W/m² | - |
| 1788605565 | 24.44° C | 90% | 1015.3 hPa | 0 mm | - | 0 W/m² | - |
| 1788605260 | 23.89° C | 91% | 1015.2 hPa | 0 mm | - | 0 W/m² | - |
| 1788604956 | 23.89° C | 92% | 1015.1 hPa | 0 mm | - | 0 W/m² | - |
| 1788604650 | 23.89° C | 91% | 1015.3 hPa | 0 mm | - | 0 W/m² | - |
| 1788604381 | 23.89° C | 92% | 1015 hPa | 0 mm | - | 0 W/m² | - |
| 1788604041 | 23.89° C | 92% | 1015.2 hPa | 0 mm | - | 0 W/m² | - |
* Rain latest hour (hover to see other rain measurements)
** Current wind speed in m/s (hover to see current wind gust speed)